Flight Track Log - Related Links

Times and Time Zones

All times are in EDT time to prevent confusion due to time zone crossing. See the GJS3649 flight status page for this flight to view local times or setup timezone preferences in your user account.

Time Position Orientation Groundspeed Altitude Reporting Facility
EDT Latitude Longitude Course Direction KTS MPH feet Rate Location/Type
Tue 07:11:05 AM 36.1864 -95.8825 39° Northeast 148 170 1,400  Level Kansas City Center
Tue 07:11:54 AM 36.1597 -95.8653 152° Southeast 177 204 2,900 2,202 Climbing Kansas City Center
Tue 07:12:54 AM 36.1867 -95.7894 66° East 263 303 5,400 2,416 Climbing Kansas City Center
Tue 07:14:23 AM 36.2442 -95.6700 59° Northeast 268 308 8,900 2,174 Climbing Kansas City Center
Tue 07:15:00 AM 36.3876 -95.3508 60° Northeast  Level FlightAware Approximate
Tue 07:15:23 AM 36.2894 -95.5806 58° Northeast 294 338 10,800  Level Kansas City Center
Tue 07:16:00 AM 36.4365 -95.2468 39° Northeast  Level FlightAware Approximate
Tue 07:16:24 AM 36.3372 -95.4814 59° Northeast 328 377 12,500  Level Kansas City Center
Tue 07:17:25 AM 36.3869 -95.3761 60° Northeast 363 418 14,200 1,820 Climbing Kansas City Center
Tue 07:18:26 AM 36.4661 -95.2719 47° Northeast 380 437 16,200 1,835 Climbing Kansas City Center
Tue 07:19:26 AM 36.5428 -95.1792 44° Northeast 385 443 17,900 1,587 Climbing Kansas City Center
Tue 07:20:27 AM 36.6108 -95.0975 44° Northeast 386 444 19,400 1,525 Climbing Kansas City Center
Tue 07:21:28 AM 36.6894 -95.0014 44° Northeast 392 451 21,000 1,475 Climbing Kansas City Center
Tue 07:22:29 AM 36.7711 -94.9033 44° Northeast 401 461 22,400 1,279 Climbing Kansas City Center
Tue 07:23:30 AM 36.8514 -94.8033 45° Northeast 407 468 23,600 1,279 Climbing Kansas City Center
Tue 07:24:31 AM 36.9528 -94.6808 44° Northeast 417 480 25,000 1,190 Climbing Kansas City Center
Tue 07:25:31 AM 37.0375 -94.5758 45° Northeast 425 489 26,000 992 Climbing Kansas City Center
Tue 07:26:32 AM 37.1247 -94.4681 45° Northeast 436 502 27,000 1,082 Climbing Kansas City Center
Tue 07:27:33 AM 37.2125 -94.3600 44° Northeast 441 507 28,200 1,033 Climbing Kansas City Center
Tue 07:28:34 AM 37.3006 -94.2503 45° Northeast 444 511 29,100 836 Climbing Kansas City Center
Tue 07:29:35 AM 37.3889 -94.1386 45° Northeast 448 516 29,900 787 Climbing Kansas City Center
Tue 07:30:36 AM 37.4717 -94.0331 45° Northeast 454 522 30,700 738 Climbing Kansas City Center
Tue 07:31:37 AM 37.5614 -93.9189 45° Northeast 457 526 31,400 934 Climbing Kansas City Center
Tue 07:32:38 AM 37.6528 -93.8044 45° Northeast 459 528 32,600 1,180 Climbing Kansas City Center
Tue 07:33:39 AM 37.7406 -93.6942 45° Northeast 449 517 33,800 1,082 Climbing Kansas City Center
Tue 07:34:40 AM 37.8267 -93.5825 46° Northeast 443 510 34,800 1,131 Climbing Kansas City Center
Tue 07:35:41 AM 37.9303 -93.4497 45° Northeast 441 507 36,100 984 Climbing Kansas City Center
Tue 07:36:42 AM 38.0164 -93.3394 45° Northeast 439 505 36,800 689 Climbing Kansas City Center
Tue 07:37:43 AM 38.1025 -93.2275 46° Northeast 439 505 37,500 689 Climbing Kansas City Center
Tue 07:38:44 AM 38.1881 -93.1161 46° Northeast 438 504 38,200 738 Climbing Kansas City Center
Tue 07:39:45 AM 38.2761 -93.0044 45° Northeast 441 507 39,000 393 Climbing Kansas City Center
Tue 07:40:46 AM 38.3619 -92.8931 45° Northeast 440 506 39,000  Level Kansas City Center
Tue 07:41:47 AM 38.4483 -92.7800 46° Northeast 439 505 39,000  Level Kansas City Center
Tue 07:42:48 AM 38.5367 -92.6647 46° Northeast 447 514 39,000  Level Kansas City Center
Tue 07:43:49 AM 38.6242 -92.5489 46° Northeast 449 517 39,000  Level Kansas City Center
Tue 07:44:50 AM 38.7111 -92.4336 46° Northeast 448 516 39,000  Level Kansas City Center
Tue 07:45:51 AM 38.7967 -92.3175 47° Northeast 447 514 39,000  Level Kansas City Center
Tue 07:46:52 AM 38.8836 -92.2033 46° Northeast 445 512 39,000  Level Kansas City Center
Tue 07:47:54 AM 38.9697 -92.0889 46° Northeast 444 511 39,000  Level Kansas City Center
Tue 07:48:55 AM 39.0558 -91.9725 46° Northeast 447 514 39,000  Level Kansas City Center
Tue 07:49:56 AM 39.1417 -91.8558 46° Northeast 447 514 39,000  Level Kansas City Center
Tue 07:50:57 AM 39.2283 -91.7400 46° Northeast 447 514 39,000 -590 Level Kansas City Center
Tue 07:51:58 AM 39.3267 -91.6067 46° Northeast 447 514 37,800 -1,366 Descending Kansas City Center
Tue 07:53:00 AM 39.4128 -91.4889 47° Northeast 448 516 36,200 -1,561 Descending Kansas City Center
Tue 07:54:01 AM 39.4969 -91.3731 47° Northeast 445 512 34,600 -1,426 Descending Kansas City Center
Tue 07:55:02 AM 39.5833 -91.2572 46° Northeast 445 512 33,300 -787 Descending Kansas City Center
Tue 07:56:03 AM 39.6692 -91.1361 47° Northeast 449 517 33,000 -148 Descending Kansas City Center
Tue 07:57:04 AM 39.7594 -91.0281 43° Northeast 453 521 33,000  Level Kansas City Center
Tue 07:58:06 AM 39.8553 -90.9364 36° Northeast 451 519 33,000  Level Kansas City Center
Tue 07:59:07 AM 39.9753 -90.8158 38° Northeast 454 522 33,000  Level Kansas City Center
Tue 08:00:08 AM 40.0725 -90.7142 39° Northeast 449 517 33,000  Level Kansas City Center
Tue 08:01:10 AM 40.1722 -90.6117 38° Northeast 451 519 33,000  Level Kansas City Center
Tue 08:02:11 AM 40.2750 -90.5133 36° Northeast 455 524 33,000 -148 Level Kansas City Center
Tue 08:03:12 AM 40.3728 -90.4078 39° Northeast 455 524 32,700 -689 Descending Kansas City Center
Tue 08:04:13 AM 40.4756 -90.3025 38° Northeast 463 533 31,600 -1,073 Descending Kansas City Center
Tue 08:05:15 AM 40.5772 -90.1975 38° Northeast 476 548 30,500 -1,024 Descending Kansas City Center
Tue 08:06:16 AM 40.6803 -90.0931 38° Northeast 475 547 29,500 -1,180 Descending Kansas City Center
Tue 08:07:17 AM 40.7964 -89.9750 38° Northeast 451 519 28,100 -1,191 Descending Kansas City Center
Tue 08:08:27 AM 40.9058 -89.8594 39° Northeast 442 509 26,900 -1,045 Descending Chicago Center
Tue 08:09:29 AM 41.0003 -89.7547 40° Northeast 450 518 25,800 -1,258 Descending Chicago Center
Tue 08:10:31 AM 41.1036 -89.6486 38° Northeast 461 531 24,300 -1,742 Descending Chicago Center
Tue 08:11:33 AM 41.1844 -89.5300 48° Northeast 440 506 22,200 -2,032 Descending Chicago Center
Tue 08:12:35 AM 41.2406 -89.3931 61° Northeast 422 486 20,100 -1,935 Descending Chicago Center
Tue 08:13:37 AM 41.2942 -89.2586 62° Northeast 410 472 18,200 -1,935 Descending Chicago Center
Tue 08:14:39 AM 41.3539 -89.1056 62° Northeast 398 458 16,100 -1,790 Descending Chicago Center
Tue 08:15:41 AM 41.4044 -88.9797 62° Northeast 387 445 14,500 -1,548 Descending Chicago Center
Tue 08:16:43 AM 41.4550 -88.8556 61° Northeast 383 441 12,900 -1,452 Descending Chicago Center
Tue 08:17:45 AM 41.5036 -88.7319 62° Northeast 379 436 11,500 -927 Descending Chicago Center
Tue 08:18:46 AM 41.5606 -88.5858 62° Northeast 371 427 11,000 -244 Descending Chicago Center
Tue 08:19:48 AM 41.6106 -88.4644 61° Northeast 373 429 11,000  Level Chicago Center
Tue 08:20:50 AM 41.6750 -88.3536 52° Northeast 375 432 11,000 48 Level Chicago Center
Tue 08:21:52 AM 41.7400 -88.2433 52° Northeast 376 433 11,100 -145 Climbing Chicago Center
Tue 08:22:54 AM 41.8028 -88.1347 52° Northeast 368 423 10,700 -677 Descending Chicago Center
Tue 08:23:56 AM 41.8536 -88.0444 53° Northeast 312 359 9,700 -1,252 Descending Chicago Center
Tue 08:24:49 AM 41.8833 -87.9333 70° East 312 359 8,300 -1,381 Descending Chicago TRACON
Tue 08:25:49 AM 41.8833 -87.8333 90° East 297 342 7,100 -947 Descending Chicago TRACON
Tue 08:27:02 AM 41.8839 -87.7014 90° East 294 338 6,200 -889 Descending Chicago Center
Tue 08:28:04 AM 41.8836 -87.5939 90° East 289 333 5,100 -581 Descending Chicago Center
Tue 08:29:06 AM 41.8836 -87.4847 90° East 293 337 5,000 -48 Descending Chicago Center
Tue 08:30:08 AM 41.8908 -87.3786 85° East 292 336 5,000  Level Chicago Center
Tue 08:31:10 AM 41.9453 -87.3719 North 211 243 5,000  Level Chicago Center
Tue 08:32:12 AM 41.9692 -87.4383 296° West 164 189 5,000  Level Chicago Center
Tue 08:33:14 AM 41.9686 -87.5033 269° West 174 200 5,000  Level Chicago Center
Tue 08:34:16 AM 41.9683 -87.5672 270° West 173 199 5,000 -339 Level Chicago Center
Tue 08:35:18 AM 41.9683 -87.6303 270° West 172 198 4,300 -774 Descending Chicago Center
Tue 08:36:20 AM 41.9692 -87.6903 271° West 165 190 3,400 -871 Descending Chicago Center

Login

Don't have an account? Register now (free) for customized features, flight alerts, and more!